User: anonymous   Login
Location: Unspecified
(0.0000°N, 0.0000°E)
Time: 12:53:04
(UTC+00:00)
Language:

MUOS 4 - Orbit

View from above orbital plane
View from above orbital plane
View from above satellite
View from above satellite

Ground track
Ground track

The orbit is defined by the following mean orbital elements,

1 40887U          26146.16893858 +.00000000 +00000-0 +00000-0 0 00007
2 40887   4.2905  42.1175 0060015   3.7334 333.7137  1.00272725    04
Epoch (UTC): 26 May 2026 04:03:16
Eccentricity: 0.0060015
inclination: 4.2905°
perigee height: 35533 km
apogee height: 36039 km
right ascension of ascending node: 42.1175°
argument of perigee: 3.7334°
revolutions per day: 1.00272725
mean anomaly at epoch: 333.7137°

The dashed part of the orbit path shows where the satellite is in the earth's shadow,  

DLR